This is the latest recevied weather packets stored in our database for station/object N4AR. If no packets are shown the sender has not sent any weather packets the latest 10 day(s).
| Time | Temp. | Humidity | Pressure | Rain* | Wind** | Luminosity | Snow |
|---|---|---|---|---|---|---|---|
| 1777568713 | 18.89° C | 68% | 1009.9 hPa | 0 mm | - | 230 W/m² | - |
| 1777568411 | 18.33° C | 68% | 1009.9 hPa | 0 mm | - | 202 W/m² | - |
| 1777568108 | 17.78° C | 69% | 1009.6 hPa | 0 mm | - | 346 W/m² | - |
| 1777567804 | 17.78° C | 72% | 1009.3 hPa | 0 mm | - | 239 W/m² | - |
| 1777567501 | 17.78° C | 71% | 1009.6 hPa | 0 mm | - | 129 W/m² | - |
| 1777567198 | 17.78° C | 70% | 1009.8 hPa | 0 mm | - | 94 W/m² | - |
| 1777566896 | 17.78° C | 70% | 1009.8 hPa | 0 mm | - | 130 W/m² | - |
| 1777566594 | 17.78° C | 70% | 1009.7 hPa | 0 mm | - | 176 W/m² | - |
| 1777566291 | 17.78° C | 72% | 1009.8 hPa | 0 mm | - | 146 W/m² | - |
| 1777565988 | 17.22° C | 70% | 1009.7 hPa | 0 mm | - | 151 W/m² | - |
| 1777565683 | 17.78° C | 70% | 1009.4 hPa | 0 mm | - | 158 W/m² | - |
| 1777565380 | 17.78° C | 70% | 1009.5 hPa | 0 mm | - | 168 W/m² | - |
| 1777565076 | 17.22° C | 71% | 1009.6 hPa | 0 mm | - | 188 W/m² | - |
| 1777564772 | 17.78° C | 72% | 1009.8 hPa | 0 mm | - | 171 W/m² | - |
| 1777564467 | 17.78° C | 73% | 1009.7 hPa | 0 mm | - | 179 W/m² | - |
| 1777564163 | 17.22° C | 73% | 1009.7 hPa | 0 mm | - | 161 W/m² | - |
| 1777563860 | 17.22° C | 71% | 1009.8 hPa | 0 mm | - | 153 W/m² | - |
| 1777563556 | 17.78° C | 72% | 1009.8 hPa | 0 mm | - | 167 W/m² | - |
| 1777563255 | 17.78° C | 71% | 1009.7 hPa | 0 mm | - | 199 W/m² | - |
| 1777562952 | 17.22° C | 75% | 1009.9 hPa | 0 mm | - | 234 W/m² | - |
| 1777562648 | 17.22° C | 74% | 1009.7 hPa | 0 mm | - | 207 W/m² | - |
| 1777562348 | 16.67° C | 73% | 1009.9 hPa | 0 mm | - | 174 W/m² | - |
| 1777562044 | 16.67° C | 74% | 1009.8 hPa | 0 mm | - | 150 W/m² | - |
| 1777561741 | 17.22° C | 71% | 1009.6 hPa | 0 mm | - | 138 W/m² | - |
| 1777561436 | 17.22° C | 73% | 1009.8 hPa | 0 mm | - | 209 W/m² | - |
* Rain latest hour (hover to see other rain measurements)
** Current wind speed in m/s (hover to see current wind gust speed)